Commit Graph
591 Commits
Author SHA1 Message Date
MihailRis ba4338c4fa small util::base64_decode optimization 2024-01-25 02:18:50 +03:00
MihailRis 3cfdbc8338 stringutil added util::base64_encode/decode 2024-01-25 02:07:44 +03:00
MihailRis 32891ad156 rolled back temporary 2024-01-25 01:05:28 +03:00
MihailRis 7613aa4e97 unicode strings now writing as is, without escaping 2024-01-25 01:01:09 +03:00
MihailRis 0beeaf93ef hotbar scroll inverted 2024-01-25 00:43:06 +03:00
MihailRis 9332fa375c fixed escape_string for binary data 2024-01-25 00:33:13 +03:00
MihailRis 5687e55094 default load-speed set to 4 + minor refactor 2024-01-24 20:43:52 +03:00
MihailRis 58fbb96f2c chunks controller & lighting optimizations 2024-01-24 20:22:21 +03:00
MihailRis 5d931eacc6 additional optimizations 2024-01-24 19:59:12 +03:00
MihailRis 4ea36f8996 experimental optimizations 2024-01-24 18:23:48 +03:00
MihailRis f0fbceb0af added extra animation frame 2024-01-24 14:55:07 +03:00
MihailRis ab3b797ee4 removed extra animation frame 2024-01-24 14:12:14 +03:00
MihailRis 2cace1a479 script-name property fix 2024-01-24 00:03:07 +03:00
MihailRis 2fef31eee0 inventory view fix 2024-01-23 23:53:44 +03:00
MihailRis e457e3da39 lua: 'core' prefix support + minor refactor 2024-01-23 23:52:42 +03:00
MihailRis 2aaa37bb7d content-loader icon-type reset fix 2024-01-23 23:28:18 +03:00
MihailRis 36a5da5bc1 blocks animation fix 2024-01-23 23:03:52 +03:00
MihailRis 4fe79458ab fixed player spawn point 2024-01-23 01:44:16 +03:00
MihailRis b4bf0dd0f7 fixes 2024-01-22 22:04:33 +03:00
MihailRis 5c36f59b4f added time.uptime() and sleep(timesec) 2024-01-22 18:38:46 +03:00
MihailRis 5188ee7bd8 on_blocks_tick event 2024-01-22 14:28:39 +03:00
@clasher113 1b2c0a0f21 Build fix 2024-01-22 11:05:49 +02:00
@clasher113 6fba4a7065 Merge branch 'main' of https://github.com/MihailRis/VoxelEngine-Cpp 2024-01-22 10:52:28 +02:00
@clasher113 fcc874a20f Merge branch 'main' of https://github.com/clasher113/VoxelEngine-Cpp 2024-01-22 10:51:02 +02:00
@clasher113 bdc21df5c7 Block animation speed fix 2024-01-22 10:50:49 +02:00
MihailRis 31eda1abb2 lua: world.get_total_time + set_block_user_bits fix 2024-01-22 09:52:26 +03:00
MihailRis ff7f18fa7b added stdlib.lua + lua errors handling update 2024-01-22 08:14:52 +03:00
MihailRis e4ef813705 InventoryBuilder add(InventoryPanel), add(SlotLayout) 2024-01-22 04:05:41 +03:00
MihailRis 0d62067e5a inventory saving 2024-01-22 01:41:57 +03:00
MihailRis 6efbaac18a src/files update + write_binary_json compression argument 2024-01-22 00:36:17 +03:00
MihailRis d2fe51e1ff minor refactor 2024-01-21 23:48:56 +03:00
MihailRis db2108171c inventory render optimized 2024-01-21 23:35:41 +03:00
MihailRis 714a49685f Texture.readData 2024-01-21 22:29:14 +03:00
MihailRis 6430121cf2 addGrid extra slots creation fix 2024-01-21 19:46:35 +03:00
MihailRis aa93c27159 InventoryView.addGrid semantics changed 2024-01-21 19:21:18 +03:00
MihailRis 9e3c4fb00c InventoryBuilder used for access panel and hotbar 2024-01-21 18:34:44 +03:00
clasher113andGitHub 623314e97f Update assetload_funcs.cpp 2024-01-21 16:03:15 +02:00
@clasher113 b80e36f008 Merge branch 'main' of https://github.com/MihailRis/VoxelEngine-Cpp 2024-01-21 15:42:38 +02:00
@clasher113 5fb0127915 IntelliSence moment 2024-01-21 15:27:50 +02:00
@clasher113 5fb34daf52 Block animation 2024-01-21 15:23:03 +02:00
MihailRis 5142f3b4e7 Inventory (WIP part I) 2024-01-21 15:23:46 +03:00
MihailRis fe5cab0db0 small fix 2024-01-20 23:44:35 +03:00
A-lex-Ra 8386611f40 quickfix icon display 2024-01-19 20:46:36 +06:00
MihailRis 1938ccc803 increased world loading speed and ui scroll 2024-01-19 03:53:30 +03:00
MihailRis 9c110b83d3 Fixed world name label behaviour 2024-01-18 20:11:47 +03:00
MihailRis b12d242335 Block.scriptName, ItemDef.scriptName 2024-01-18 04:41:35 +03:00
MihailRis 9119caca65 Delete world feature 2024-01-18 04:06:27 +03:00
MihailRis 01344a9d1d added ItemDef.stackSize 2024-01-18 01:56:41 +03:00
MihailRis 097e6fde2f removed debug profiling 2024-01-18 00:55:46 +03:00
MihailRis 6214e1a507 randomTick sped up with faster rand implementation 2024-01-17 23:41:11 +03:00